Location: Vancouver
(49.2500°N, 123.1330°W)
Time: 12:17:01
(UTC-07:00)

ERS-2 - Visible Passes

Search period start: 20 June 2018 00:00
Search period end: 30 June 2018 00:00
Orbit: 497 x 503 km, 98.5° (Epoch: 19 June)

Date Brightness Start Highest point End Pass type
(mag) Time Alt. Az. Time Alt. Az. Time Alt. Az.
21 Jun 4.8 22:19:42 10° SW 22:22:00 16° W 22:24:19 10° NW visible
25 Jun 5.0 22:36:25 10° WSW 22:37:40 11° W 22:38:56 10° WNW visible
26 Jun 4.7 22:15:19 10° SW 22:17:57 19° W 22:20:36 10° NW visible
